Regional Weather Roundup
Issued by NWS Nashville, TN

Home | Current Version | Previous Version | Text Only | Print | Product List | Glossary On
Versions: 1 2 3 4 5 6 7 8 9 10 11 12 13 14 15 16 17 18 19 20 21 22 23 24 25 26 27 28 29 30 31 32 33 34 35 36 37 38 39 40 41 42 43 44 45 46 47 48 49 50
000
ASUS44 KOHX 280305
RWROHX
MIDDLE TENNESSEE HOURLY WEATHER ROUNDUP
NATIONAL WEATHER SERVICE NASHVILLE TN
1000 PM CDT WED AUG 27 2014

NOTE: "FAIR" INDICATES FEW OR NO CLOUDS BELOW 12,000 FEET WITH
NO SIGNIFICANT WEATHER AND/OR OBSTRUCTIONS TO VISIBILITY.

* THESE REPORTS ARE NOT UNDER NWS QUALITY CONTROL AND MAY NOT
  REPORT WEATHER SUCH AS PRECIPITATION AND FOG.


TNZ005>011-023>034-057-059-062>066-078-080-280400
...NORTHERN MIDDLE TENNESSEE...

CITY           SKY/WX    TMP DP  RH WIND       PRES   REMARKS
CLARKSVILLE    CLEAR     78  71  79 CALM      30.06R
CROSSVILLE     CLEAR     69  65  86 CALM      30.13S
NASHVILLE      PTCLDY    81  71  71 NE3       30.06R
SMYRNA         CLEAR     74  72  93 CALM      30.07R
SPARTA         CLEAR     70  68  94 CALM      30.08S
$$
TNZ056-058-060-061-075>077-079-093>097-280400
...SOUTHERN MIDDLE TENNESSEE...

CITY           SKY/WX    TMP DP  RH WIND       PRES   REMARKS
COLUMBIA       CLEAR     75  75 100 CALM      30.05S
FAYETTEVILLE   CLEAR     73  66  78 CALM      30.07S
MCMINNVILLE    CLEAR     72  72 100 CALM      30.08S
SHELBYVILLE    CLEAR     72  70  94 SE3       30.08R
TULLAHOMA      CLEAR     72  64  78 CALM      30.09S
WINCHESTER     CLEAR     70  68  94 CALM      30.08S
$$


...KEY TO REMARKS...
VSB - VISIBILITY IN MILES
WCI - WIND CHILL INDEX
HX  - HEAT INDEX




USA.gov is the U.S. government's official web portal to all federal, state and local government web resources and services.